Temperature
25 23 23 22 22 21 21 21 20 20 20 19 19 19 18 18 18 18 18 18 18 18 18 18 18 18 17 17 17 17 17 17 17 17 18 18 18 18 18 18 18 18 18
25 24 23 22 22 22 21 21 21 20 20 19 19 19 19 18 18 18 18 18 18 18 18 18 18 18 18 18 17 17 17 17 17 17 18 18 19 18 18 18 18 18 18
26 24 23 23 23 22 22 21 21 21 20 20 19 19 19 19 18 18 18 18 18 18 18 18 18 18 18 18 18 18 17 17 17 17 17 18 19 19 19 18 18 18 18
26 25 24 24 23 23 22 22 22 21 21 20 19 19 19 19 19 18 18 18 18 18 18 18 18 18 18 18 18 18 17 17 17 17 17 17 18 18 18 19 18 18 18
27 26 25 24 24 23 22 22 22 22 21 21 20 20 19 19 19 18 18 18 18 18 18 18 18 18 18 18 18 18 18 17 17 17 17 17 17 17 17 18 18 18 18
27 26 25 24 24 23 23 22 22 22 21 21 21 20 20 19 19 19 19 19 18 18 18 18 18 18 18 18 18 18 18 17 17 17 17 17 17 17 17 18 18 18 18
27 26 25 25 24 24 23 23 23 22 22 21 21 21 20 20 19 19 19 19 19 18 18 18 18 18 18 18 18 18 18 17 17 17 17 17 17 17 17 17 17 17 18
27 26 26 25 24 24 23 23 23 23 22 22 21 21 21 20 20 20 19 19 19 19 19 19 19 19 18 18 18 17 17 17 17 17 17 17 17 17 17 17 17 17 18
27 26 25 25 24 24 23 23 23 23 22 22 21 21 21 21 20 20 19 19 19 19 19 19 19 19 18 18 18 18 17 17 17 17 17 17 17 17 17 16 16 16 17
27 26 25 25 24 24 23 23 23 23 22 22 22 21 21 21 20 20 20 19 19 19 19 19 19 19 18 18 18 17 17 17 17 17 17 17 17 16 16 16 16 16 16
26 26 25 25 24 24 23 23 23 23 22 22 21 21 21 21 20 20 20 19 19 19 19 19 18 18 18 18 18 17 17 17 17 17 16 16 17 16 16 16 16 16 16
26 25 25 24 24 24 23 23 22 22 22 22 22 21 21 21 20 20 20 20 19 19 19 18 18 18 18 18 17 17 17 17 17 16 16 16 16 16 16 15 15 15 15
25 24 24 24 23 23 23 23 22 22 22 22 21 21 21 21 20 20 20 20 19 19 19 18 18 18 18 18 17 17 17 17 16 16 16 16 16 15 15 15 15 15 15
24 24 23 23 23 23 23 22 22 22 22 21 21 21 21 21 20 20 20 20 19 19 19 18 18 18 18 17 17 17 17 17 17 17 16 16 16 16 15 15 15 15 15
23 23 23 22 22 22 22 22 22 22 21 21 21 21 21 21 20 20 19 19 19 19 18 18 18 18 18 17 17 17 17 17 16 16 16 16 16 16 15 15 15 14 14
23 22 22 22 21 21 21 22 21 21 21 21 21 21 21 20 20 19 19 19 19 18 18 18 18 18 17 17 17 17 17 16 16 16 16 16 16 16 15 15 15 14 14
22 22 21 21 21 21 21 21 21 21 21 21 20 20 20 20 20 19 19 18 18 18 18 17 17 17 17 17 17 17 17 16 16 16 15 15 15 15 15 15 15 14 14
21 21 21 21 21 20 20 21 21 21 21 20 20 20 20 20 20 19 19 18 18 18 18 17 17 17 17 17 17 17 16 16 16 15 15 15 15 14 14 14 14 14 13
20 20 20 20 20 20 20 20 20 20 20 20 19 19 19 19 19 19 18 18 18 18 17 17 17 17 17 17 17 16 16 16 15 15 15 14 14 14 14 14 13 13 13
19 18 19 19 19 19 19 19 19 19 19 19 19 19 19 19 19 18 18 18 17 17 17 17 17 16 16 16 16 16 15 15 15 15 15 14 14 14 14 13 13 13 12
18 18 18 18 18 18 18 18 18 18 18 18 18 19 18 18 18 18 18 17 17 17 17 16 16 16 16 16 16 15 15 15 14 14 14 14 14 14 13 13 13 12 12
17 17 17 17 17 17 17 17 18 18 18 18 17 18 18 18 18 17 17 17 17 16 16 16 16 15 15 15 15 15 15 14 14 13 13 13 13 13 13 13 13 12 12
16 16 17 17 16 16 16 16 17 17 17 17 17 17 17 17 17 17 17 16 16 15 15 15 15 15 15 15 14 14 14 14 13 13 13 13 13 13 12 12 12 12 11
15 16 16 16 16 16 16 16 16 16 16 16 16 16 16 16 16 16 16 16 15 15 15 14 14 14 14 14 14 14 14 13 13 13 12 12 12 12 11 11 11 11 11
15 15 15 15 15 15 15 15 15 15 15 15 15 15 16 16 15 16 15 15 15 15 14 14 14 14 13 14 14 13 13 13 12 12 12 11 11 11 11 11 10 10 10
14 14 14 14 14 14 15 15 15 15 15 14 15 15 15 15 15 14 14 14 14 14 14 14 14 13 13 13 13 13 13 12 12 11 11 11 11 11 10 10 10 10 10
Wind_Speed
13 12 12 12 12 11 11 11 10 10 8 7 7 6 6 5 5 5 5 5 5 6 6 5 5 5 5 5 5 5 5 4 3 4 4 5 7 6 6 7 6 7 8
13 13 13 13 13 13 12 12 12 11 10 8 7 5 5 5 5 4 4 6 6 6 6 6 6 6 5 5 5 5 5 4 4 3 4 4 4 5 6 5 6 7 7
15 14 14 14 14 13 14 12 12 11 11 10 7 5 5 5 5 5 5 6 6 6 6 6 6 5 6 5 5 6 6 5 5 5 4 4 3 2 3 5 5 6 5
15 15 15 15 15 14 13 13 12 12 11 10 9 9 7 6 5 5 4 5 6 6 6 5 5 5 5 4 6 5 5 5 5 4 5 5 4 4 3 4 5 5 6
16 16 15 15 14 13 13 13 12 12 12 11 11 10 9 7 5 5 4 5 5 6 6 5 5 5 5 5 5 4 5 5 5 5 4 5 5 7 6 6 5 5 5
15 15 15 14 13 13 13 13 13 12 12 12 12 11 10 8 6 6 5 5 5 5 6 6 5 5 4 4 5 5 6 5 5 5 5 5 5 5 6 7 7 6 5
14 14 15 15 14 14 14 13 13 13 13 13 12 11 10 9 8 7 6 6 5 5 5 5 5 4 4 5 5 5 5 5 6 6 5 5 6 6 6 7 7 7 6
12 13 14 14 14 14 14 14 14 13 12 12 12 11 11 9 8 9 7 6 5 4 4 5 5 5 5 5 4 5 4 4 5 6 5 5 6 6 6 7 7 7 6
10 11 12 13 13 13 14 14 13 12 12 12 11 10 11 10 8 8 8 7 6 5 6 6 5 5 4 4 4 3 4 3 4 5 4 5 4 4 5 6 6 7 7
8 9 10 11 11 12 12 12 12 12 11 11 10 9 10 10 9 8 8 7 6 5 5 5 5 5 4 4 4 4 3 3 3 3 4 4 4 4 4 5 6 6 7
7 8 8 9 10 11 11 11 11 11 11 11 10 9 9 9 9 9 8 8 7 7 6 6 5 5 5 4 4 4 3 3 3 3 3 4 4 4 4 4 5 5 5
5 7 8 8 9 10 10 11 11 11 11 10 10 10 9 9 9 9 9 8 8 7 7 7 6 5 5 4 4 4 3 3 3 3 3 4 3 4 4 4 5 5 5
4 6 7 7 7 8 9 9 10 10 10 10 10 10 10 10 10 9 8 8 8 8 7 7 6 6 5 4 4 4 4 3 3 3 3 3 3 4 4 4 5 5 5
3 5 6 6 6 7 8 9 9 9 9 9 10 10 10 10 9 9 8 8 8 8 7 7 6 6 5 5 5 5 4 4 3 3 3 3 3 3 4 4 4 5 5
1 3 4 5 6 6 7 8 9 8 8 9 9 9 9 8 8 8 8 8 8 8 7 7 6 6 5 4 4 5 4 3 3 2 2 2 1 3 4 4 4 4 5
1 1 2 3 5 6 6 8 8 8 8 9 9 8 8 8 8 7 7 7 7 7 7 7 6 6 4 4 3 3 4 3 3 3 2 2 1 1 1 2 4 5 5
3 3 3 3 4 5 6 7 7 8 9 9 9 9 9 8 8 7 7 7 7 7 6 6 6 5 4 5 4 4 4 3 3 2 2 3 1 1 2 2 3 2 1
5 5 4 4 4 4 5 5 7 7 8 8 8 8 8 8 7 7 7 7 7 7 7 7 7 6 5 6 5 4 5 3 2 2 2 2 1 1 2 3 2 1 1
6 5 5 5 4 4 4 5 6 7 8 8 8 8 7 7 7 7 7 7 7 7 7 7 7 6 5 6 6 5 5 4 4 3 1 1 1 3 4 3 3 2 1
6 6 6 5 3 3 3 5 6 7 8 8 7 7 7 7 8 8 7 6 6 7 7 6 6 6 5 6 6 5 4 4 4 3 3 2 1 1 3 3 3 3 3
6 6 5 4 4 3 3 5 5 6 6 6 6 7 7 7 7 7 6 6 6 6 6 6 5 5 5 7 6 5 4 4 4 3 3 2 4 2 2 4 2 3 4
6 6 5 5 4 4 4 5 5 4 4 5 6 6 6 6 6 7 6 6 6 6 6 6 5 4 4 5 6 5 3 3 3 3 2 2 4 3 2 1 1 3 5
6 6 5 5 5 4 4 5 4 3 4 5 6 6 5 5 5 6 6 5 5 5 6 6 6 5 5 5 6 7 6 3 3 2 3 4 5 4 3 2 2 3 2
6 6 5 5 5 4 4 4 3 4 4 6 6 5 5 5 4 4 5 5 5 5 6 6 6 6 5 5 5 5 5 6 5 4 5 6 5 3 2 3 3 2 1
6 6 6 5 5 5 4 3 2 3 4 5 5 5 5 5 4 3 2 4 4 4 5 5 5 6 6 6 5 5 5 5 5 5 4 3 3 3 3 2 2 2 1
6 6 6 6 5 5 4 3 3 3 3 4 5 5 5 5 5 4 3 4 3 5 4 2 2 3 3 6 6 5 5 5 5 6 5 4 4 3 3 3 2 2 1
Wind_Direction
200 198 200 203 201 201 203 205 206 200 202 207 211 211 216 222 221 222 221 228 230 225 224 234 218 228 230 234 235 238 236 242 246 260 258 245 239 240 237 239 244 238 237
199 198 200 202 203 202 203 202 203 201 203 205 212 217 223 223 225 231 218 227 231 231 228 228 228 226 229 228 233 234 248 248 231 248 264 256 230 222 231 229 230 242 240
202 199 201 204 204 204 203 203 202 200 203 203 206 206 210 222 216 219 218 223 227 232 239 234 236 233 234 227 228 230 240 252 246 239 255 267 266 273 225 228 233 236 242
208 203 201 203 205 204 201 200 197 197 197 199 208 209 217 222 223 229 224 218 221 230 231 232 233 236 241 236 238 231 241 252 255 246 245 258 281 274 268 236 228 233 242
210 206 204 202 203 200 197 194 193 195 196 199 204 211 222 224 224 226 220 228 218 220 227 226 229 232 241 242 249 247 247 245 250 256 256 252 247 248 257 268 261 251 248
209 207 205 199 199 196 193 190 190 195 196 200 205 211 219 222 226 224 222 220 215 217 222 224 223 231 243 244 246 244 241 248 255 260 259 258 256 256 257 267 269 267 265
205 202 200 197 196 195 193 191 191 195 197 200 205 209 214 217 221 229 224 226 222 216 212 221 218 229 234 244 248 244 252 250 253 254 257 258 261 267 266 268 276 278 273
197 197 196 196 196 194 192 192 193 196 197 201 205 208 210 215 218 218 229 223 229 224 199 207 216 225 233 239 239 249 248 252 258 260 259 260 260 264 264 267 274 279 275
189 188 188 191 192 191 190 191 190 192 195 199 202 206 210 217 218 212 217 224 221 217 202 208 214 221 224 230 236 246 251 254 257 267 262 264 271 269 270 268 265 270 279
180 179 181 183 185 184 183 185 187 189 191 194 199 203 207 210 214 217 217 220 218 216 208 209 212 212 211 211 221 232 229 243 254 269 283 277 275 275 274 276 273 265 270
174 172 174 176 178 178 177 180 182 185 188 192 194 200 203 205 207 211 213 210 213 206 207 210 210 212 215 212 212 232 231 242 255 265 269 274 285 284 281 279 278 276 274
169 167 168 170 174 177 178 181 185 188 190 191 192 196 200 203 205 208 209 206 204 205 204 204 206 209 211 213 218 230 237 246 254 263 272 278 279 277 286 288 286 286 282
164 169 169 172 175 181 184 185 189 192 192 191 195 197 200 202 206 209 206 202 200 200 198 199 203 205 205 209 219 227 234 243 251 259 267 278 286 285 287 286 288 286 282
154 175 177 177 183 195 193 195 196 197 196 193 195 199 202 204 206 207 207 204 200 198 197 196 197 199 202 207 214 218 223 231 237 249 258 269 280 284 285 279 283 289 288
153 181 188 189 192 197 200 201 201 198 197 197 200 202 202 200 203 205 207 206 203 201 196 195 195 198 201 208 207 212 212 212 223 238 255 274 358 357 323 310 306 300 291
282 243 217 206 204 204 208 207 203 197 194 200 203 199 195 195 197 203 205 202 198 196 193 192 188 191 200 134 148 224 206 206 218 230 245 234 201 186 247 328 330 329 304
317 292 264 245 232 221 213 212 208 196 195 198 198 194 191 190 190 190 189 192 185 183 186 187 188 189 176 148 166 212 213 212 222 227 243 262 254 238 261 218 216 239 304
320 308 291 271 252 237 225 216 205 198 195 195 194 191 191 191 183 181 185 189 187 183 187 188 190 187 176 158 169 192 200 203 206 218 238 257 270 326 309 274 257 262 289
320 314 303 287 274 249 231 220 208 201 199 198 196 191 187 186 185 186 186 187 187 190 190 190 191 190 173 157 169 192 191 193 199 201 198 236 224 41 329 276 267 267 272
326 323 311 297 284 273 239 224 218 209 207 204 198 188 184 185 187 191 190 189 190 191 188 185 186 186 176 159 169 203 204 198 195 183 170 105 65 54 310 265 263 264 272
320 319 312 300 293 282 255 232 226 221 215 208 201 192 185 186 186 183 183 184 188 187 184 177 177 176 172 164 171 202 216 209 204 202 196 154 134 166 270 272 268 289 285
319 318 311 302 295 276 255 245 237 234 214 201 197 196 188 184 181 177 180 182 182 183 182 178 176 171 173 173 176 185 220 271 206 208 199 138 138 170 217 264 351 288 273
318 315 312 308 296 279 263 253 245 237 217 200 193 186 180 175 178 178 180 181 184 192 191 188 188 180 179 172 168 178 183 206 203 171 107 126 159 178 174 165 233 247 252
309 309 305 298 293 284 267 252 228 210 205 201 194 181 177 176 176 180 185 182 179 192 195 194 193 187 184 185 183 186 180 178 185 172 148 159 175 195 144 163 192 225 280
300 301 297 293 292 292 278 254 238 210 210 201 191 184 180 179 180 185 188 186 177 187 198 202 202 200 200 190 180 186 185 193 191 183 177 181 176 183 185 184 181 192 202
297 298 296 294 294 288 270 251 224 205 215 220 205 196 189 186 190 179 153 84 127 124 127 130 205 194 167 148 159 165 159 163 177 187 184 188 193 199 201 200 190 190 214
Height
1529 1532 1534 1536 1538 1539 1541 1542 1544 1545 1546 1547 1549 1550 1551 1551 1552 1553 1553 1554 1554 1555 1556 1557 1557 1557 1558 1558 1558 1559 1559 1559 1559 1560 1560 1560 1559 1559 1559 1559 1559 1559 1559
1526 1529 1531 1533 1535 1537 1538 1540 1541 1543 1544 1545 1547 1548 1549 1550 1550 1551 1551 1552 1552 1553 1555 1555 1555 1556 1556 1556 1556 1556 1557 1557 1558 1558 1558 1557 1558 1556 1556 1556 1555 1555 1556
1521 1525 1527 1530 1532 1533 1535 1537 1539 1540 1542 1543 1545 1546 1546 1547 1548 1548 1549 1549 1550 1551 1552 1552 1553 1553 1554 1554 1554 1554 1554 1555 1555 1555 1556 1555 1554 1554 1554 1553 1553 1552 1552
1517 1520 1523 1526 1528 1530 1532 1534 1536 1538 1540 1541 1543 1544 1545 1546 1546 1546 1547 1547 1547 1548 1550 1550 1551 1551 1552 1552 1552 1552 1552 1552 1553 1553 1552 1553 1552 1552 1551 1551 1550 1549 1549
1512 1516 1519 1522 1525 1527 1529 1531 1533 1535 1537 1539 1540 1541 1543 1544 1545 1544 1544 1544 1545 1546 1547 1548 1549 1549 1550 1550 1549 1549 1549 1550 1550 1550 1550 1550 1549 1549 1549 1547 1547 1546 1546
1507 1511 1515 1518 1521 1524 1526 1528 1530 1532 1534 1536 1537 1539 1540 1541 1542 1542 1542 1543 1544 1544 1545 1546 1546 1547 1547 1547 1547 1546 1547 1547 1546 1546 1546 1547 1546 1546 1545 1544 1543 1543 1542
1503 1507 1511 1514 1517 1520 1522 1525 1527 1529 1531 1533 1534 1536 1537 1539 1539 1540 1541 1541 1542 1543 1543 1544 1544 1544 1544 1544 1544 1544 1544 1544 1543 1543 1543 1543 1543 1543 1542 1541 1540 1539 1538
1498 1502 1506 1510 1513 1516 1519 1521 1523 1525 1527 1529 1531 1533 1534 1536 1537 1538 1539 1540 1541 1541 1540 1540 1541 1541 1541 1542 1542 1542 1542 1541 1541 1541 1540 1540 1539 1539 1538 1538 1537 1535 1534
1495 1499 1502 1506 1509 1512 1515 1518 1520 1522 1524 1527 1529 1530 1532 1533 1535 1535 1536 1537 1538 1538 1538 1538 1538 1539 1539 1539 1539 1539 1539 1539 1539 1539 1538 1537 1537 1536 1535 1534 1534 1534 1531
1494 1497 1500 1503 1506 1509 1512 1514 1517 1519 1521 1524 1526 1528 1529 1530 1532 1533 1534 1535 1535 1536 1536 1536 1536 1536 1537 1536 1536 1537 1536 1536 1536 1535 1535 1534 1534 1533 1532 1531 1530 1530 1529
1493 1495 1498 1501 1504 1507 1509 1511 1513 1516 1518 1521 1522 1524 1526 1528 1529 1530 1531 1531 1532 1533 1533 1534 1534 1534 1535 1535 1534 1535 1534 1534 1534 1533 1532 1532 1531 1530 1530 1529 1528 1527 1526
1492 1494 1497 1499 1502 1504 1506 1509 1511 1513 1515 1517 1519 1521 1523 1524 1526 1527 1528 1529 1529 1530 1531 1531 1532 1532 1533 1533 1532 1532 1532 1532 1531 1531 1530 1529 1529 1528 1527 1526 1525 1524 1523
1492 1493 1495 1497 1500 1502 1504 1506 1508 1511 1513 1514 1516 1517 1519 1521 1522 1524 1525 1526 1526 1527 1528 1528 1529 1530 1530 1530 1530 1530 1530 1530 1529 1528 1528 1527 1526 1525 1524 1523 1523 1522 1521
1491 1492 1494 1495 1497 1499 1501 1503 1505 1508 1510 1511 1512 1514 1515 1517 1519 1520 1521 1522 1523 1524 1525 1526 1526 1527 1527 1528 1528 1528 1527 1527 1527 1526 1525 1525 1524 1523 1522 1521 1520 1519 1518
1489 1490 1491 1493 1495 1496 1498 1499 1502 1504 1506 1507 1509 1510 1512 1513 1515 1516 1518 1519 1520 1521 1522 1522 1523 1524 1524 1525 1525 1525 1525 1524 1524 1523 1523 1522 1521 1520 1519 1519 1518 1517 1516
1489 1489 1490 1491 1492 1493 1494 1496 1497 1499 1500 1502 1504 1506 1507 1508 1510 1512 1514 1515 1516 1517 1518 1519 1520 1520 1521 1522 1522 1522 1522 1521 1521 1520 1520 1519 1518 1517 1516 1515 1515 1514 1513
1488 1488 1488 1488 1489 1490 1490 1492 1493 1495 1496 1498 1500 1501 1502 1504 1505 1507 1509 1511 1511 1512 1513 1514 1515 1517 1517 1518 1518 1519 1518 1518 1518 1518 1517 1517 1516 1514 1514 1512 1512 1511 1510
1485 1485 1485 1486 1486 1487 1488 1489 1490 1491 1493 1494 1495 1497 1498 1500 1501 1503 1505 1506 1507 1508 1509 1509 1510 1512 1513 1513 1514 1515 1515 1515 1515 1515 1514 1514 1513 1512 1511 1511 1510 1509 1508
1483 1482 1482 1482 1482 1483 1484 1485 1486 1487 1488 1490 1491 1492 1494 1496 1497 1499 1500 1501 1503 1503 1504 1506 1507 1508 1509 1509 1510 1511 1511 1511 1511 1511 1511 1511 1510 1509 1509 1508 1508 1507 1506
1481 1479 1479 1479 1479 1479 1480 1481 1482 1483 1483 1485 1486 1488 1489 1491 1493 1495 1496 1498 1499 1500 1501 1502 1503 1504 1505 1506 1506 1507 1508 1508 1508 1508 1508 1507 1507 1507 1506 1506 1505 1504 1504
1478 1477 1476 1475 1475 1475 1476 1476 1477 1478 1479 1481 1482 1483 1484 1486 1487 1489 1491 1493 1494 1496 1497 1498 1499 1500 1501 1502 1503 1504 1504 1505 1505 1505 1505 1504 1503 1503 1503 1503 1502 1501 1501
1475 1474 1473 1472 1472 1472 1472 1472 1473 1474 1476 1477 1478 1479 1480 1481 1483 1484 1486 1488 1490 1492 1493 1494 1496 1496 1497 1499 1499 1500 1501 1501 1502 1502 1502 1501 1501 1500 1500 1500 1499 1499 1499
1473 1472 1471 1469 1469 1469 1469 1469 1469 1471 1471 1473 1473 1474 1476 1477 1478 1480 1482 1483 1485 1487 1489 1491 1491 1492 1493 1494 1496 1496 1496 1497 1498 1499 1499 1499 1498 1498 1497 1497 1497 1497 1497
1471 1469 1468 1467 1466 1466 1465 1465 1466 1467 1468 1469 1470 1471 1472 1473 1474 1475 1478 1479 1480 1483 1484 1486 1487 1488 1489 1490 1491 1492 1492 1493 1494 1495 1495 1496 1496 1496 1495 1495 1495 1495 1495
1467 1466 1465 1464 1463 1462 1461 1462 1462 1463 1464 1465 1466 1467 1468 1469 1470 1472 1473 1474 1476 1478 1480 1482 1484 1485 1486 1486 1487 1487 1488 1489 1491 1491 1492 1493 1493 1493 1494 1493 1493 1493 1493
1464 1463 1462 1461 1460 1459 1458 1457 1458 1459 1461 1463 1463 1463 1464 1466 1467 1468 1468 1470 1472 1474 1476 1477 1479 1481 1483 1483 1483 1484 1485 1486 1487 1489 1489 1490 1490 1491 1491 1491 1491 1491 1491